DMSP 5D-3 F19 DEB

Satellite information

Favourite Embed

Satellite Type and Status

DEBRISIN ORBIT

Key statistics

Satellite DMSP 5D-3 F19 DEB at a glance.

Uptime

4273

Days in orbit

Revolutions

≈ 14.3

Per day

Orbit

SSO

Sun Synchronous Orbit

Inclination

98.7

Latest

Satellite identification and parameters

Extended collection of information and parameters for DMSP 5D-3 F19 DEB.

Object identification

Identified? True

Debris? True

Object name: DMSP 5D-3 F19 DEB

International designator: 2014-015C

Object number (NORAD): 39632

Object ID (CCSDS): 39632

Country: UNITED STATES OF AMERICA (US)

Current information (Y/N): Y

RCS size: SMALL

Orbital parameters

Period: 101.021 minutes

Inclination: 98.6695 deg

SMA: 7185.143 km

Apoapsis: 810.168 km

Periapsis: 803.849 km

RAAN: 355.5666 deg

Eccentricy: 0.00043974

Argument of periapsis: 309.4375 deg

Mean anomaly: 50.6415 deg

Mean motion: 14.2544224 rev/day

Mean motion (dot): 0.00003512 rev/day2

B* drag term: 0.0015057373 1/REarth

Two-line elements (TLE)

Creation date: Dec. 12, 2025, 10:14 a.m.

Reference frame: TEME

Reference center: EARTH

Epoch: Dec. 12, 2025, 6:48 a.m. UTC

TLE line 0: 0 DMSP 5D-3 F19 DEB

TLE line 1: 1 39632U 14015C 25346.28369416 .00003512 00000-0 15057-2 0 9994

TLE line 2: 2 39632 98.6695 355.5666 0004397 309.4375 50.6415 14.25442240605121

Live tracking on map

Real-time ground track for satellite DMSP 5D-3 F19 DEB.

In-orbit conjunctions

A list of the most updated potential collisions computed for object DMSP 5D-3 F19 DEB.

Target Orbit TCA Probability of collision Miss distance Type
CZ-6A DEB LEO 2025-01-28 11:42:14 0.0002489647 539.0 (m) DEBRIS
SL-16 R/B LEO 2024-10-05 21:15:21 0.0002461094 193.0 (m) ROCKET BODY

Associated space launch

DMSP-5D3 (Defense Meteorological Satellite Program Block 5D3) is the eleventh and most recent version of the military meteorological satellites of the Defense Meteorological Satellite Program.

DMSP 5D-3 F19 DEB was lifted into orbit during the mission ‘Atlas V 401 | DMSP-5D3 F19’, on board a Atlas V 401 space rocket.

The launch took place on April 3, 2014, 2:46 p.m. from Space Launch Complex 3E.

For more information about the launch, click the button.

Launch to space Atlas V 401 | DMSP-5D3 F19
Atlas V 401 | DMSP-5D3 F19

Agency: N/A

Status: Launch Successful

Launch date: April 3, 2014, 2:46 p.m. UTC

Rocket: Atlas V 401

Launch pad: Space Launch Complex 3E

Location: Vandenberg SFB, CA, USA

...

Latest news about this satellite

There are no fresh news available about this satellite. Check back as we update our databases every day.


Newsletter sign-up

Weekly statistics, charts and insights to help you stay on top of the space industry.